User: anonymous   Login
Location: Caltech
(34.1382°N, 118.1253°W)
Time: 15:20:22
(UTC-08:00)
Language:

GPS 2-04 Rocket1 - Orbit

View from above orbital plane
View from above orbital plane
View from above satellite
View from above satellite

Ground track
Ground track

The orbit data is extracted from the following two-line orbital elements,

1 20303U 89085B   18050.85592824 +.00001946 +00000-0 +67861-4 0  9997
2 20303 035.6306 291.3175 0104201 203.4490 156.1463 15.24703470538893
Epoch (UTC): 19 February 2018 20:32:32
Eccentricity: 0.0104201
inclination: 35.6306°
perigee height: 420 km
apogee height: 563 km
right ascension of ascending node: 291.3175°
argument of perigee: 203.4490°
revolutions per day: 15.24703470
mean anomaly at epoch: 156.1463°
orbit number at epoch: 53889

The dashed part of the orbit path shows where the satellite is in the earth's shadow,  

DLR